STARLINK-11716 [DTC]

Last updated on Mon Jun 23 2025 00:02:05 GMT+0000 (Coordinated Universal Time)

1 64133U 25111L 25173.49823328 .00290974 00000+0 16148-2 0 9996 2 64133 42.9955 102.5760 0001680 44.4852 315.6153 15.77906700 5760

Satellite not in orbit